Flag for Germany Weather past 2 weeks in Bitterfeld-Wolfen, Saxony-Anhalt, Germany

Now
52 °F

Rain. Mostly cloudy.


Feels Like: 47 °F
Forecast: 45 / 50 °F
Wind: 16 mph from West

Location: Leipzig-Schkeuditz

Current Time: Oct 21, 2014 at 10:27:21 PM

Latest Report: Oct 21, 2014 at 9:50 PM


Visibility: 5 mi

Pressure: 29.50 "Hg

Humidity: 94%

Dew point: 50 °F

Location of Bitterfeld-WolfenLocation

Historic Weather in Bitterfeld-Wolfen — Graph

°F

Bitterfeld-Wolfen temperature yesterday

Maximum temperature yesterday: 63 °F (at 12:20 AM)
Minimum temperature yesterday: 52 °F (at 10:50 PM)
Average temperature yesterday: 58 °F

Past Weeks' High & Low Weather Summary

 TemperatureHumidityPressure
High73 °F (Oct 9, 3:20 PM)100% (Oct 7, 3:50 AM)30.21 "Hg (Oct 7, 3:50 AM)
Low46 °F (Oct 7, 3:50 AM)52% (Oct 15, 3:50 PM)29.47 "Hg (Oct 21, 8:50 PM)
Average58 °F86%29.88 "Hg
* Reported Oct 6 9:20 PM — Oct 21 9:20 PM, Bitterfeld-Wolfen, Weather by CustomWeather, © 2014

Note: Actual official high and low records may vary slightly from our data, if they occured in-between our weather recording intervals... More about our weather records

Advertising

Bitterfeld-Wolfen weather history for previous 24 hours

 ConditionsComfort  
Time TempWeatherWind HumidityBarometerVisibility
9:20 PM
Oct 21
55 °FLight rain. Passing clouds.6 mph82%29.47 "HgN/A
8:50 PM55 °FLight rain. Passing clouds.8 mph77%29.47 "HgN/A
8:20 PM55 °FPassing clouds.17 mph77%29.50 "HgN/A
7:50 PM55 °FPassing clouds.14 mph77%29.50 "HgN/A
7:20 PM55 °FPassing clouds.18 mph77%29.53 "HgN/A
6:50 PM57 °FPartly sunny.17 mph72%29.53 "HgN/A
6:20 PM55 °FPartly sunny.13 mph77%29.53 "HgN/A
5:50 PM55 °FPartly sunny.14 mph77%29.56 "HgN/A
5:20 PM55 °FSunny.14 mph77%29.59 "Hg10 mi
4:50 PM55 °FPartly sunny.12 mph77%29.59 "HgN/A
4:20 PM55 °FPartly sunny.12 mph77%29.62 "HgN/A
3:50 PM55 °FBroken clouds.12 mph77%29.65 "HgN/A
3:20 PM57 °FLight rain. Broken clouds.13 mph67%29.65 "HgN/A
2:50 PM59 °FPartly sunny.13 mph63%29.68 "HgN/A
2:20 PM57 °FBroken clouds.10 mph72%29.71 "HgN/A
1:50 PM57 °FBroken clouds.15 mph67%29.71 "HgN/A
1:20 PM57 °FPartly sunny.17 mph72%29.74 "HgN/A
12:50 PM57 °FPartly sunny.17 mph72%29.74 "HgN/A
12:20 PM57 °FBroken clouds.18 mph67%29.77 "HgN/A
11:50 AM57 °FScattered clouds.16 mph72%29.77 "HgN/A
11:20 AM57 °FPartly sunny.14 mph77%29.80 "HgN/A
10:50 AM57 °FSunny.15 mph77%29.80 "Hg10 mi
10:20 AM55 °FSunny.12 mph82%29.80 "Hg10 mi
9:50 AM54 °FSunny.12 mph88%29.83 "Hg10 mi
9:20 AM54 °FSunny.12 mph82%29.83 "Hg10 mi
8:50 AM54 °FSunny.10 mph82%29.83 "Hg10 mi
8:20 AM52 °FClear.10 mph88%29.83 "Hg10 mi
7:50 AM52 °FClear.8 mph88%29.83 "Hg10 mi
7:20 AM52 °FPartly cloudy.9 mph88%29.83 "HgN/A
6:50 AM50 °FClear.8 mph94%29.83 "Hg10 mi
6:20 AM52 °FPartly cloudy.9 mph88%29.86 "HgN/A
5:50 AM52 °FClear.9 mph88%29.86 "Hg10 mi
5:20 AM52 °FClear.9 mph88%29.86 "Hg10 mi
4:50 AM52 °FClear.8 mph88%29.86 "Hg10 mi
4:20 AM52 °FClear.7 mph88%29.86 "Hg10 mi
3:50 AM52 °FClear.9 mph88%29.89 "Hg10 mi
3:20 AM52 °FClear.10 mph94%29.89 "Hg10 mi
2:50 AM52 °FClear.8 mph88%29.89 "Hg10 mi
2:20 AM52 °FClear.9 mph88%29.89 "Hg10 mi
1:50 AM52 °FClear.9 mph88%29.89 "Hg10 mi
1:20 AM52 °FClear.9 mph88%29.89 "Hg10 mi
12:50 AM52 °FClear.10 mph88%29.89 "Hg10 mi
12:20 AM54 °FClear.9 mph82%29.92 "Hg10 mi
11:50 PM
Oct 20
54 °FClear.9 mph88%29.92 "Hg10 mi
11:20 PM54 °FClear.10 mph82%29.92 "Hg10 mi
10:50 PM52 °FClear.10 mph88%29.92 "Hg10 mi
10:20 PM54 °FClear.12 mph82%29.92 "Hg10 mi
Weather by CustomWeather, © 2014

See weather overviewHow to use our weather pages